Weaverville, CA

7:23 PM PST on January 20, 2018 (GMT -0800)
Weaverville

Weather History for KO54 - October, 2014

Change the Weather History Date:

Tuesday, October 28, 2014

  Actual Average (KRDD) Record (KRDD)
Temperature  
Mean Temperature 50 °F -  
Max Temperature 62 °F 68 °F 97 °F (2003)
Min Temperature 37 °F 43 °F 36 °F (2011)
Degree Days  
Heating Degree Days 16    
Moisture  
Dew Point 43 °F    
Average Humidity 83    
Maximum Humidity 100    
Minimum Humidity 52    
Precipitation  
Precipitation 0.00 in - - ()
Sea Level Pressure  
Sea Level Pressure 30.15 in    
Wind  
Wind Speed 0 mph (SW)    
Max Wind Speed 6 mph    
Max Gust Speed -    
Visibility 8 miles    
Events      
Averages and records for this station are not official NWS values.
T = Trace of Precipitation, MM = Missing Value Source: NWS Daily Summary

Daily Weather History Graph

Daily Weather History Graph

Search for Another Location

Airport or City:

Trip Planner

Search our weather history database for the weather conditions in past years. The results will help you decide how hot, cold, wet, or windy it might be!

Date:

Astronomy

Oct. 28, 2014 Rise Set
Actual Time 7:37 AM PDT 6:12 PM PDT
Civil Twilight 7:09 AM PDT 6:40 PM PDT
Nautical Twilight 6:37 AM PDT 7:13 PM PDT
Astronomical Twilight 6:05 AM PDT 7:44 PM PDT
Moon 12:12 PM PDT (10/28) 10:23 PM PDT (10/28)
Length of Visible Light 11h 31m
Length of Day
10h 35m
Waxing Crescent, 25% of the Moon is Illuminated
Oct 28
Waxing Crescent
Oct 30
First Quarter
Nov 6
Full
Nov 14
Last Quarter
Nov 22
New

Hourly Weather History & Observations

Time (PDT) Temp. Windchill Dew Point Humidity Pressure Visibility Wind Dir Wind Speed Gust Speed Precip Events Conditions
12:15 AM 39.2 °F - 37.4 °F 93% 30.13 in 9.0 mi Calm Calm - N/A   Clear
12:35 AM 39.2 °F - 37.4 °F 93% 30.14 in 10.0 mi Calm Calm - N/A   Clear
12:55 AM 37.4 °F - 37.4 °F 100% 30.14 in 9.0 mi Calm Calm - N/A   Clear
1:15 AM 37.4 °F - 37.4 °F 100% 30.14 in 9.0 mi Calm Calm - N/A   Clear
1:35 AM 37.4 °F - 35.6 °F 93% 30.14 in 8.0 mi Calm Calm - N/A   Clear
1:55 AM 37.4 °F - 35.6 °F 93% 30.14 in 10.0 mi Calm Calm - N/A   Clear
2:15 AM 37.4 °F - 35.6 °F 93% 30.14 in 10.0 mi Calm Calm - N/A   Mostly Cloudy
2:35 AM 37.4 °F - 35.6 °F 93% 30.14 in 10.0 mi Calm Calm - N/A   Overcast
2:55 AM 37.4 °F - 35.6 °F 93% 30.15 in 0.8 mi Calm Calm - N/A   Overcast
3:15 AM 37.4 °F - 37.4 °F 100% 30.14 in 0.5 mi Calm Calm - N/A   Overcast
3:35 AM 39.2 °F - 37.4 °F 93% 30.14 in 0.8 mi Calm Calm - N/A   Overcast
3:55 AM 39.2 °F - 37.4 °F 93% 30.14 in 3.0 mi Calm Calm - N/A   Overcast
4:15 AM 39.2 °F - 39.2 °F 100% 30.14 in 0.5 mi Calm Calm - N/A   Overcast
4:35 AM 39.2 °F - 39.2 °F 100% 30.14 in 0.2 mi Calm Calm - N/A   Overcast
4:55 AM 39.2 °F - 39.2 °F 100% 30.14 in 0.2 mi Calm Calm - N/A   Overcast
5:15 AM 39.2 °F - 39.2 °F 100% 30.14 in 0.5 mi Calm Calm - N/A   Overcast
5:35 AM 39.2 °F - 39.2 °F 100% 30.15 in 1.0 mi Calm Calm - N/A   Overcast
5:55 AM 39.2 °F - 39.2 °F 100% 30.16 in 2.5 mi Calm Calm - N/A   Overcast
6:15 AM 39.2 °F - 39.2 °F 100% 30.16 in 2.0 mi Calm Calm - N/A   Overcast
6:35 AM 39.2 °F 37.0 °F 39.2 °F 100% 30.16 in 8.0 mi NNE 3.5 mph - N/A   Overcast
6:55 AM 39.2 °F - 39.2 °F 100% 30.17 in 7.0 mi Calm Calm - N/A   Overcast
7:15 AM 39.2 °F - 39.2 °F 100% 30.17 in 10.0 mi Calm Calm - N/A   Overcast
7:35 AM 41.0 °F - 39.2 °F 93% 30.17 in 10.0 mi Calm Calm - N/A   Overcast
7:55 AM 41.0 °F - 39.2 °F 93% 30.17 in 10.0 mi Calm Calm - N/A   Overcast
8:15 AM 41.0 °F - 39.2 °F 93% 30.17 in 10.0 mi Calm Calm - N/A   Overcast
8:35 AM 41.0 °F - 39.2 °F 93% 30.18 in 10.0 mi Calm Calm - N/A   Overcast
8:55 AM 41.0 °F - 39.2 °F 93% 30.18 in 10.0 mi Calm Calm - N/A   Overcast
9:15 AM 41.0 °F - 39.2 °F 93% 30.18 in 10.0 mi Calm Calm - N/A   Overcast
9:35 AM 41.0 °F - 39.2 °F 93% 30.18 in 10.0 mi Calm Calm - N/A   Overcast
9:55 AM 41.0 °F 39.0 °F 39.2 °F 93% 30.18 in 10.0 mi SSW 3.5 mph - N/A   Overcast
10:15 AM 41.0 °F - 39.2 °F 93% 30.18 in 10.0 mi Calm Calm - N/A   Overcast
10:35 AM 42.8 °F - 39.2 °F 87% 30.18 in 10.0 mi Calm Calm - N/A   Overcast
10:55 AM 42.8 °F - 41.0 °F 93% 30.18 in 10.0 mi Calm Calm - N/A   Overcast
11:15 AM 44.6 °F - 41.0 °F 87% 30.18 in 10.0 mi Calm Calm - N/A   Overcast
11:35 AM 44.6 °F - 41.0 °F 87% 30.18 in 10.0 mi Calm Calm - N/A   Overcast
11:55 AM 48.2 °F - 42.8 °F 82% 30.17 in 10.0 mi SW 3.5 mph - N/A   Overcast
12:15 PM 50.0 °F - 42.8 °F 76% 30.16 in 10.0 mi Calm Calm - N/A   Scattered Clouds
12:35 PM 51.8 °F - 42.8 °F 71% 30.16 in 10.0 mi Calm Calm - N/A   Mostly Cloudy
12:55 PM 53.6 °F - 42.8 °F 67% 30.15 in 10.0 mi Calm Calm - N/A   Mostly Cloudy
1:15 PM 53.6 °F - 42.8 °F 67% 30.15 in 10.0 mi Calm Calm - N/A   Mostly Cloudy
1:35 PM 53.6 °F - 44.6 °F 72% 30.14 in 10.0 mi Calm Calm - N/A   Scattered Clouds
1:55 PM 55.4 °F - 44.6 °F 67% 30.13 in 10.0 mi Calm Calm - N/A   Scattered Clouds
2:15 PM 55.4 °F - 44.6 °F 67% 30.13 in 10.0 mi SW 3.5 mph - N/A   Scattered Clouds
2:35 PM 57.2 °F - 44.6 °F 63% 30.13 in 10.0 mi Calm Calm - N/A   Overcast
2:55 PM 59.0 °F - 44.6 °F 59% 30.12 in 10.0 mi Calm Calm - N/A   Mostly Cloudy
3:15 PM 59.0 °F - 42.8 °F 55% 30.12 in 10.0 mi Calm Calm - N/A   Scattered Clouds
3:35 PM 60.8 °F - 44.6 °F 55% 30.12 in 10.0 mi Calm Calm - N/A   Scattered Clouds
3:55 PM 62.6 °F - 44.6 °F 52% 30.11 in 10.0 mi Calm Calm - N/A   Scattered Clouds
4:15 PM 62.6 °F - 44.6 °F 52% 30.11 in 10.0 mi SW 3.5 mph - N/A   Mostly Cloudy
4:35 PM 62.6 °F - 46.4 °F 55% 30.11 in 10.0 mi SW 4.6 mph - N/A   Overcast
4:55 PM 62.6 °F - 46.4 °F 55% 30.11 in 10.0 mi Calm Calm - N/A   Overcast
5:15 PM 60.8 °F - 46.4 °F 59% 30.11 in 10.0 mi Calm Calm - N/A   Overcast
5:35 PM 60.8 °F - 46.4 °F 59% 30.11 in 10.0 mi SSW 3.5 mph - N/A   Overcast
5:55 PM 59.0 °F - 48.2 °F 67% 30.11 in 10.0 mi Calm Calm - N/A   Overcast
6:15 PM 59.0 °F - 48.2 °F 67% 30.11 in 10.0 mi Calm Calm - N/A   Overcast
6:35 PM 57.2 °F - 50.0 °F 77% 30.11 in 10.0 mi Calm Calm - N/A   Overcast
6:55 PM 55.4 °F - 50.0 °F 82% 30.12 in 10.0 mi Calm Calm - N/A   Overcast
7:15 PM 55.4 °F - 50.0 °F 82% 30.12 in 10.0 mi North 3.5 mph - N/A   Overcast
7:35 PM 55.4 °F - 50.0 °F 82% 30.13 in 10.0 mi Calm Calm - N/A   Overcast
7:55 PM 55.4 °F - 50.0 °F 82% 30.13 in 10.0 mi Calm Calm - N/A   Overcast
8:15 PM 55.4 °F - 48.2 °F 77% 30.15 in 10.0 mi Calm Calm - N/A   Overcast
8:35 PM 55.4 °F - 48.2 °F 77% 30.15 in 10.0 mi Calm Calm - N/A   Overcast
8:55 PM 55.4 °F - 50.0 °F 82% 30.16 in 8.0 mi South 3.5 mph - N/A   Overcast
9:15 PM 55.4 °F - 48.2 °F 77% 30.16 in 10.0 mi South 3.5 mph - N/A   Overcast
9:35 PM 55.4 °F - 48.2 °F 77% 30.16 in 10.0 mi SSW 5.8 mph - N/A   Overcast
9:55 PM 55.4 °F - 48.2 °F 77% 30.16 in 10.0 mi SW 4.6 mph - N/A   Overcast
10:15 PM 55.4 °F - 48.2 °F 77% 30.17 in 10.0 mi Calm Calm - N/A   Overcast
10:35 PM 55.4 °F - 48.2 °F 77% 30.18 in 10.0 mi SW 4.6 mph - N/A   Overcast
10:55 PM 55.4 °F - 48.2 °F 77% 30.18 in 10.0 mi Calm Calm - N/A   Overcast
11:15 PM 53.6 °F - 48.2 °F 82% 30.18 in 10.0 mi Calm Calm - N/A   Overcast
11:35 PM 53.6 °F - 48.2 °F 82% 30.18 in 10.0 mi Calm Calm - N/A   Overcast
11:55 PM 51.8 °F - 48.2 °F 88% 30.18 in 10.0 mi NNE 3.5 mph - N/A   Overcast